Погода в Сунтаре

Россия / Республика Саха (Якутия)     62°09′38″N   117°38′51″E
темп.,
°C
ветер,
м/с
пор.,
м/с
влажн.,
%
обл.,
%
осадки,
мм/ч
давл.,
гПа
погр.,
м
5 декабря, вс
вс500:00−4зюз61485100 0.0 991752
03:00−7з7137798 0.1 992784
06:00−10зюз3108696 0.1 994328
09:00−11зюз4128873 0.1 995520
12:00−12з6117859 0.0 998749
15:00−16з51085100 0.0 1001731
18:00−18з51085100 0.0 1005873
21:00−20з51086100 0.1 1008976
6 декабря, пн
пн600:00−23з5138226 0.0 1012737
03:00−25з398827 0.0 1014372
06:00−31зюз229922 0.0 101523
09:00−34зюз11996 0.0 101615
12:00−33зюз27955 0.0 1016160
15:00−32ююз23969 0.0 101746
18:00−30ю2492100 0.0 1017108
21:00−25ю3898100 0.1 1014267
7 декабря, вт
вт700:00−21юз3997100 0.4 1012675
03:00−21з3794100 0.7 1012679
06:00−26зюз22100100 0.0 101431
09:00−31зюз1110022 0.1 101610
12:00−31юз119912 0.0 101830
15:00−30ю11985 0.0 10209
18:00−34ю111005 0.0 102110
21:00−33ююв2210054 0.0 102032
8 декабря, ср
ср800:00−29юв2495100 0.0 101864
03:00−23вюв2687100 0.0 1014127
06:00−19вюв3986100 0.0 1009236
09:00−16вюв41096100 0.8 1005296
12:00−14вюв3695100 1.2 1002240
15:00−13ююв1297100 1.4 100143
18:00−14з31392100 0.1 1004476
21:00−16зсз41392100 0.2 1007733
9 декабря, чт
чт900:00−18зсз41294100 0.1 1010644
03:00−19зсз31095100 0.4 1013628
06:00−18з2996100 0.2 1015579
09:00−16зюз4992100 0.5 1017662
12:00−17зюз51088100 0.1 1019658
15:00−18зюз51187100 0.1 1020711
18:00−19зюз51285100 0.0 1021719
21:00−19зюз51292100 0.1 1022743